When you browse on this site, cookies collect data to enhance your experience and personalize the content and advertising you see.
Visit our Privacy Policy to learn more. By continuing to use the site, you agree to this use of cookies and data.
  • In Latvia
  • List of Countries
  • For 7 days
  • Water Temperature
  • Weather Map
  • Weather Widgets
  • user-avatar
    Login

    Hourly Weather Andora

    Today, 22 September, Sunday

    Time Temperature Precipitation Wind Pressure Humidity
    00:00 +10°C° 0 mm 2 mps 622 mmHg 92%
    01:00 +10°C° 0 mm 2 mps 622 mmHg 92%
    02:00 +10°C° 0 mm 2 mps 621 mmHg 93%
    03:00 +10°C° 0 mm 2 mps 621 mmHg 93%
    04:00 +10°C° 0 mm 2 mps 621 mmHg 93%
    05:00 +10°C° 0 mm 2 mps 621 mmHg 93%
    06:00 +10°C° 0 mm 2 mps 621 mmHg 93%
    07:00 +12°C° 0.1 mm 2 mps 622 mmHg 90%
    08:00 +13°C° 0.1 mm 2 mps 623 mmHg 87%
    09:00 +14°C° 0.1 mm 2 mps 623 mmHg 84%
    10:00 +15°C° 0.2 mm 2 mps 623 mmHg 82%
    11:00 +16°C° 0.2 mm 2 mps 624 mmHg 79%
    12:00 +16°C° 0.2 mm 2 mps 624 mmHg 77%
    13:00 +16°C° 0.5 mm 2 mps 624 mmHg 79%
    14:00 +16°C° 0.5 mm 2 mps 624 mmHg 80%
    15:00 +15°C° 0.5 mm 2 mps 623 mmHg 81%
    16:00 +14°C° 0.4 mm 1 mps 623 mmHg 86%
    17:00 +12°C° 0.4 mm 1 mps 623 mmHg 90%
    18:00 +11°C° 0.4 mm 1 mps 623 mmHg 95%
    19:00 +11°C° 0.1 mm 1 mps 623 mmHg 95%
    20:00 +10°C° 0.1 mm 1 mps 624 mmHg 95%
    21:00 +10°C° 0.1 mm 1 mps 624 mmHg 96%
    22:00 +10°C° 0 mm 1 mps 624 mmHg 95%
    23:00 +9°C° 0 mm 1 mps 624 mmHg 95%

    Tomorrow, 23 September, Monday

    Time Temperature Precipitation Wind Pressure Humidity
    00:00 +9°C° 0 mm 1 mps 625 mmHg 95%
    01:00 +9°C° 0 mm 1 mps 625 mmHg 94%
    02:00 +8°C° 0 mm 1 mps 625 mmHg 94%
    03:00 +8°C° 0 mm 1 mps 625 mmHg 93%
    04:00 +8°C° 0 mm 1 mps 625 mmHg 92%
    05:00 +8°C° 0 mm 1 mps 625 mmHg 92%
    06:00 +6°C° 0 mm 0 mps 625 mmHg 91%
    07:00 +9°C° 0 mm 1 mps 626 mmHg 85%
    08:00 +11°C° 0 mm 1 mps 626 mmHg 80%
    09:00 +12°C° 0 mm 1 mps 627 mmHg 74%
    10:00 +14°C° 0 mm 1 mps 628 mmHg 64%
    11:00 +15°C° 0 mm 2 mps 628 mmHg 55%
    12:00 +16°C° 0 mm 2 mps 628 mmHg 45%
    13:00 +16°C° 0 mm 2 mps 628 mmHg 46%
    14:00 +16°C° 0 mm 2 mps 628 mmHg 47%
    15:00 +16°C° 0 mm 2 mps 627 mmHg 49%
    16:00 +14°C° 0 mm 1 mps 626 mmHg 57%
    17:00 +12°C° 0 mm 1 mps 626 mmHg 66%
    18:00 +10°C° 0 mm 1 mps 625 mmHg 75%
    19:00 +10°C° 0 mm 1 mps 625 mmHg 73%
    20:00 +10°C° 0 mm 1 mps 625 mmHg 71%
    21:00 +10°C° 0 mm 1 mps 625 mmHg 69%
    22:00 +10°C° 0 mm 1 mps 625 mmHg 69%
    23:00 +10°C° 0 mm 1 mps 625 mmHg 68%

    Day after tomorrow, 24 September, Tuesday

    Time Temperature Precipitation Wind Pressure Humidity
    00:00 +10°C° 0 mm 1 mps 624 mmHg 67%
    01:00 +10°C° 0 mm 1 mps 624 mmHg 67%
    02:00 +9°C° 0 mm 1 mps 624 mmHg 67%
    03:00 +9°C° 0 mm 1 mps 623 mmHg 67%
    04:00 +9°C° 0 mm 1 mps 623 mmHg 67%
    05:00 +9°C° 0 mm 1 mps 623 mmHg 67%
    06:00 +9°C° 0 mm 1 mps 623 mmHg 67%
    07:00 +12°C° 0 mm 1 mps 624 mmHg 61%
    08:00 +15°C° 0 mm 1 mps 625 mmHg 56%
    09:00 +19°C° 0 mm 1 mps 627 mmHg 50%
    10:00 +19°C° 0 mm 1 mps 627 mmHg 49%
    11:00 +19°C° 0 mm 2 mps 627 mmHg 48%
    12:00 +19°C° 0 mm 2 mps 627 mmHg 47%
    13:00 +19°C° 0 mm 2 mps 627 mmHg 50%
    14:00 +19°C° 0 mm 2 mps 626 mmHg 52%
    15:00 +18°C° 0 mm 2 mps 626 mmHg 55%
    16:00 +16°C° 0 mm 2 mps 625 mmHg 63%
    17:00 +15°C° 0 mm 1 mps 625 mmHg 71%
    18:00 +13°C° 0 mm 1 mps 624 mmHg 80%
    19:00 +12°C° 0 mm 1 mps 624 mmHg 83%
    20:00 +11°C° 0 mm 1 mps 624 mmHg 86%
    21:00 +10°C° 0 mm 0 mps 624 mmHg 89%
    22:00 +9°C° 0 mm 0 mps 624 mmHg 90%
    23:00 +9°C° 0 mm 0 mps 624 mmHg 90%

    25 September, Wednesday

    Time Temperature Precipitation Wind Pressure Humidity
    00:00 +9°C° 0 mm 0 mps 624 mmHg 91%
    01:00 +8°C° 0 mm 0 mps 624 mmHg 92%
    02:00 +9°C° 0 mm 1 mps 624 mmHg 93%
    03:00 +9°C° 0 mm 1 mps 623 mmHg 93%
    04:00 +8°C° 0 mm 1 mps 623 mmHg 94%
    05:00 +8°C° 0 mm 1 mps 623 mmHg 94%
    06:00 +8°C° 0 mm 1 mps 623 mmHg 95%
    07:00 +9°C° 0 mm 1 mps 624 mmHg 91%
    08:00 +11°C° 0 mm 1 mps 625 mmHg 87%
    09:00 +12°C° 0 mm 1 mps 626 mmHg 83%
    10:00 +12°C° 0 mm 1 mps 626 mmHg 79%
    11:00 +13°C° 0 mm 2 mps 626 mmHg 76%
    12:00 +13°C° 0 mm 2 mps 626 mmHg 73%
    13:00 +13°C° 0 mm 2 mps 626 mmHg 73%
    14:00 +13°C° 0 mm 2 mps 625 mmHg 72%
    15:00 +13°C° 0 mm 2 mps 625 mmHg 72%
    16:00 +12°C° 0 mm 1 mps 625 mmHg 76%
    17:00 +11°C° 0 mm 1 mps 625 mmHg 81%
    18:00 +10°C° 0 mm 1 mps 624 mmHg 85%
    19:00 +10°C° 0 mm 1 mps 624 mmHg 86%
    20:00 +8°C° 0 mm 0 mps 625 mmHg 88%
    21:00 +8°C° 0 mm 0 mps 625 mmHg 90%
    22:00 +7°C° 0 mm 0 mps 624 mmHg 90%
    23:00 +7°C° 0 mm 0 mps 624 mmHg 90%

    26 September, Thursday

    Time Temperature Precipitation Wind Pressure Humidity
    00:00 +7°C° 0 mm 0 mps 624 mmHg 90%
    01:00 +6°C° 0 mm 0 mps 624 mmHg 89%
    02:00 +7°C° 0 mm 1 mps 624 mmHg 89%
    03:00 +7°C° 0 mm 1 mps 624 mmHg 88%
    04:00 +7°C° 0 mm 1 mps 623 mmHg 86%
    05:00 +7°C° 0 mm 1 mps 623 mmHg 85%
    06:00 +7°C° 0 mm 1 mps 623 mmHg 83%
    07:00 +9°C° 0 mm 1 mps 624 mmHg 74%
    08:00 +12°C° 0 mm 1 mps 626 mmHg 65%
    09:00 +15°C° 0 mm 1 mps 627 mmHg 55%
    10:00 +16°C° 0 mm 1 mps 627 mmHg 52%
    11:00 +17°C° 0 mm 2 mps 627 mmHg 48%
    12:00 +18°C° 0 mm 2 mps 627 mmHg 44%
    13:00 +18°C° 0 mm 2 mps 627 mmHg 45%
    14:00 +18°C° 0 mm 2 mps 627 mmHg 47%
    15:00 +18°C° 0 mm 2 mps 626 mmHg 48%
    16:00 +16°C° 0 mm 1 mps 625 mmHg 59%
    17:00 +13°C° 0 mm 1 mps 624 mmHg 70%
    18:00 +11°C° 0 mm 1 mps 624 mmHg 81%
    19:00 +10°C° 0 mm 1 mps 624 mmHg 83%
    20:00 +10°C° 0 mm 1 mps 624 mmHg 84%
    21:00 +10°C° 0 mm 1 mps 624 mmHg 85%
    22:00 +9°C° 0 mm 1 mps 624 mmHg 86%
    23:00 +9°C° 0 mm 1 mps 624 mmHg 86%

    27 September, Friday

    Time Temperature Precipitation Wind Pressure Humidity
    00:00 +9°C° 0 mm 1 mps 624 mmHg 87%
    01:00 +9°C° 0 mm 1 mps 624 mmHg 87%
    02:00 +9°C° 0 mm 1 mps 623 mmHg 87%
    03:00 +8°C° 0 mm 1 mps 623 mmHg 87%
    04:00 +8°C° 0 mm 1 mps 623 mmHg 88%
    05:00 +8°C° 0 mm 1 mps 623 mmHg 88%
    06:00 +8°C° 0 mm 1 mps 623 mmHg 88%
    07:00 +10°C° 0 mm 1 mps 624 mmHg 79%
    08:00 +13°C° 0 mm 1 mps 626 mmHg 70%
    09:00 +15°C° 0 mm 1 mps 627 mmHg 62%
    10:00 +16°C° 0 mm 2 mps 627 mmHg 57%
    11:00 +17°C° 0 mm 2 mps 627 mmHg 53%
    12:00 +18°C° 0 mm 2 mps 627 mmHg 48%
    13:00 +18°C° 0 mm 3 mps 627 mmHg 51%
    14:00 +17°C° 0 mm 3 mps 627 mmHg 53%
    15:00 +17°C° 0 mm 3 mps 626 mmHg 56%
    16:00 +15°C° 0 mm 2 mps 626 mmHg 66%
    17:00 +13°C° 0 mm 1 mps 625 mmHg 76%
    18:00 +11°C° 0 mm 1 mps 625 mmHg 86%
    19:00 +11°C° 0 mm 1 mps 625 mmHg 88%
    20:00 +10°C° 0 mm 1 mps 625 mmHg 91%
    21:00 +10°C° 0 mm 1 mps 625 mmHg 93%
    22:00 +9°C° 0 mm 1 mps 625 mmHg 94%
    23:00 +8°C° 0 mm 0 mps 625 mmHg 94%
    Show more